Time,TemperatureF,DewpointF,PressureIn,WindDirection,WindDirectionDegrees,WindSpeedMPH,WindSpeedGustMPH,Humidity,HourlyPrecipIn,Conditions,Clouds,dailyrainin,SolarRadiationWatts/m^2,SoftwareType,DateUTC
2013-11-23 00:21:00,31.0,30.0,-100.00,East,101,7.0,12.0,97,0.00,,,0.01,0.000000,,2013-11-23 07:21:00,
2013-11-23 00:32:00,31.0,30.0,-100.00,East,101,7.0,12.0,97,0.00,,,0.01,0.000000,,2013-11-23 07:32:00,
2013-11-23 00:42:00,31.0,30.0,-100.00,East,101,7.0,12.0,97,0.00,,,0.01,0.000000,,2013-11-23 07:42:00,
2013-11-23 01:21:00,31.0,30.0,-100.00,ESE,105,6.0,11.0,97,0.00,,,0.01,0.000000,,2013-11-23 08:21:00,
2013-11-23 01:32:00,31.0,30.0,-100.00,ESE,105,6.0,11.0,97,0.00,,,0.01,0.000000,,2013-11-23 08:32:00,
2013-11-23 01:42:00,31.0,30.0,-100.00,ESE,105,6.0,11.0,97,0.00,,,0.01,0.000000,,2013-11-23 08:42:00,
2013-11-23 02:11:00,31.0,30.0,-100.00,ESE,109,4.0,11.0,96,0.00,,,-99.99,0.000000,,2013-11-23 09:11:00,
2013-11-23 02:22:00,31.0,30.0,-100.00,ESE,109,4.0,11.0,96,0.00,,,-99.99,0.000000,,2013-11-23 09:22:00,
2013-11-23 02:33:00,31.0,30.0,-100.00,ESE,109,4.0,11.0,96,0.00,,,-99.99,0.000000,,2013-11-23 09:33:00,
2013-11-23 02:43:00,31.0,30.0,-100.00,ESE,109,4.0,11.0,96,0.00,,,-99.99,0.000000,,2013-11-23 09:43:00,
2013-11-23 03:23:00,31.0,30.0,-100.00,ESE,106,5.0,9.0,96,0.00,,,0.01,0.000000,,2013-11-23 10:23:00,
2013-11-23 03:33:00,31.0,30.0,-100.00,ESE,106,5.0,9.0,96,0.00,,,0.01,0.000000,,2013-11-23 10:33:00,
2013-11-23 03:42:00,31.0,30.0,-100.00,ESE,106,5.0,9.0,96,0.00,,,0.01,0.000000,,2013-11-23 10:42:00,
2013-11-23 04:22:00,30.0,29.0,-100.00,ESE,111,4.0,8.0,96,0.00,,,0.01,0.000000,,2013-11-23 11:22:00,
2013-11-23 04:33:00,30.0,29.0,-100.00,ESE,111,4.0,8.0,96,0.00,,,0.01,0.000000,,2013-11-23 11:33:00,
2013-11-23 04:42:00,30.0,29.0,-100.00,ESE,111,4.0,8.0,96,0.00,,,0.01,0.000000,,2013-11-23 11:42:00,
2013-11-23 05:12:00,30.0,29.0,-100.00,ESE,116,4.0,6.0,97,0.00,,,0.01,0.000000,,2013-11-23 12:12:00,
2013-11-23 05:22:00,30.0,29.0,-100.00,ESE,116,4.0,6.0,97,0.00,,,0.01,0.000000,,2013-11-23 12:22:00,
2013-11-23 05:32:00,30.0,29.0,-100.00,ESE,116,4.0,6.0,97,0.00,,,0.01,0.000000,,2013-11-23 12:32:00,
2013-11-23 05:42:00,30.0,29.0,-100.00,ESE,116,4.0,6.0,97,0.00,,,0.01,0.000000,,2013-11-23 12:42:00,
2013-11-23 06:22:00,30.0,29.0,-100.00,ESE,116,6.0,8.0,97,0.00,,,0.01,0.000000,,2013-11-23 13:22:00,
2013-11-23 06:32:00,30.0,29.0,-100.00,ESE,116,6.0,8.0,97,0.00,,,0.01,0.000000,,2013-11-23 13:32:00,
2013-11-23 06:42:00,30.0,29.0,-100.00,ESE,116,6.0,8.0,97,0.00,,,0.01,0.000000,,2013-11-23 13:42:00,
2013-11-23 07:21:00,30.0,29.0,-100.00,ESE,108,8.0,12.0,96,0.00,,,0.01,0.000000,,2013-11-23 14:21:00,
2013-11-23 07:32:00,30.0,29.0,-100.00,ESE,108,8.0,12.0,96,0.00,,,0.01,0.000000,,2013-11-23 14:32:00,
2013-11-23 07:42:00,30.0,29.0,-100.00,ESE,108,8.0,12.0,96,0.00,,,0.01,0.000000,,2013-11-23 14:42:00,
2013-11-23 08:22:00,31.0,30.0,-100.00,East,101,5.0,13.0,96,0.00,,,0.01,2.000000,,2013-11-23 15:22:00,
2013-11-23 08:33:00,31.0,30.0,-100.00,East,101,5.0,13.0,96,0.00,,,0.01,2.000000,,2013-11-23 15:33:00,
2013-11-23 08:43:00,31.0,30.0,-100.00,East,101,5.0,13.0,96,0.00,,,0.01,2.000000,,2013-11-23 15:43:00,
2013-11-23 09:13:00,32.0,30.0,-100.00,East,101,3.0,8.0,94,0.00,,,0.01,16.000000,,2013-11-23 16:13:00,
2013-11-23 09:23:00,32.0,30.0,-100.00,East,101,3.0,8.0,94,0.00,,,0.01,16.000000,,2013-11-23 16:23:00,
2013-11-23 09:33:00,32.0,30.0,-100.00,East,101,3.0,8.0,94,0.00,,,0.01,16.000000,,2013-11-23 16:33:00,
2013-11-23 09:43:00,32.0,30.0,-100.00,East,101,3.0,8.0,94,0.00,,,0.01,16.000000,,2013-11-23 16:43:00,
2013-11-23 10:22:00,33.0,31.0,-100.00,ESE,109,6.0,10.0,92,0.00,,,-99.99,30.000000,,2013-11-23 17:22:00,
2013-11-23 10:34:00,33.0,31.0,-100.00,ESE,109,6.0,10.0,92,0.00,,,-99.99,30.000000,,2013-11-23 17:34:00,
2013-11-23 10:42:00,33.0,31.0,-100.00,ESE,109,6.0,10.0,92,0.00,,,-99.99,30.000000,,2013-11-23 17:42:00,
2013-11-23 11:22:00,35.0,33.0,-100.00,WNW,294,1.0,6.0,91,0.00,,,0.01,90.000000,,2013-11-23 18:22:00,
2013-11-23 11:32:00,35.0,33.0,-100.00,WNW,294,1.0,6.0,91,0.00,,,0.01,90.000000,,2013-11-23 18:32:00,
2013-11-23 11:42:00,35.0,33.0,-100.00,WNW,294,1.0,6.0,91,0.00,,,0.01,90.000000,,2013-11-23 18:42:00,
2013-11-23 12:21:00,34.0,32.0,-100.00,ESE,113,4.0,6.0,92,0.00,,,0.01,105.000000,,2013-11-23 19:21:00,
2013-11-23 12:32:00,34.0,32.0,-100.00,ESE,113,4.0,6.0,92,0.00,,,0.01,105.000000,,2013-11-23 19:32:00,
2013-11-23 12:42:00,34.0,32.0,-100.00,ESE,113,4.0,6.0,92,0.00,,,0.01,105.000000,,2013-11-23 19:42:00,
2013-11-23 13:21:00,35.0,33.0,-100.00,East,86,5.0,9.0,91,0.00,,,-99.99,232.000000,,2013-11-23 20:21:00,
2013-11-23 13:32:00,35.0,33.0,-100.00,East,86,5.0,9.0,91,0.00,,,-99.99,232.000000,,2013-11-23 20:32:00,
2013-11-23 13:42:00,35.0,33.0,-100.00,East,86,5.0,9.0,91,0.00,,,-99.99,232.000000,,2013-11-23 20:42:00,
2013-11-23 14:21:00,34.0,31.0,-100.00,East,83,5.0,9.0,90,0.10,,,0.11,198.000000,,2013-11-23 21:21:00,
2013-11-23 14:33:00,34.0,31.0,-100.00,East,83,5.0,9.0,90,0.10,,,0.11,198.000000,,2013-11-23 21:33:00,
2013-11-23 14:42:00,34.0,31.0,-100.00,East,83,5.0,9.0,90,0.10,,,0.11,198.000000,,2013-11-23 21:42:00,
2013-11-23 15:23:00,35.0,32.0,-100.00,ESE,119,3.0,8.0,88,0.14,,,0.25,192.000000,,2013-11-23 22:23:00,
2013-11-23 15:33:00,35.0,32.0,-100.00,ESE,119,3.0,8.0,88,0.14,,,0.25,192.000000,,2013-11-23 22:33:00,
2013-11-23 15:43:00,35.0,32.0,-100.00,ESE,119,3.0,8.0,88,0.14,,,0.25,192.000000,,2013-11-23 22:43:00,
2013-11-23 16:21:00,34.0,31.0,-100.00,SE,131,7.0,9.0,90,0.07,,,0.32,124.000000,,2013-11-23 23:21:00,
2013-11-23 16:33:00,34.0,31.0,-100.00,SE,131,7.0,9.0,90,0.07,,,0.32,124.000000,,2013-11-23 23:33:00,
2013-11-23 16:42:00,34.0,31.0,-100.00,SE,131,7.0,9.0,90,0.07,,,0.32,124.000000,,2013-11-23 23:42:00,
2013-11-23 17:21:00,33.0,31.0,-100.00,SE,146,5.0,9.0,94,0.04,,,-99.99,32.000000,,2013-11-24 00:21:00,
2013-11-23 17:31:00,33.0,31.0,-100.00,SE,146,5.0,9.0,94,0.04,,,-99.99,32.000000,,2013-11-24 00:31:00,
2013-11-23 17:42:00,33.0,31.0,-100.00,SE,146,5.0,9.0,94,0.04,,,-99.99,32.000000,,2013-11-24 00:42:00,
2013-11-23 18:22:00,34.0,33.0,-100.00,SE,144,6.0,7.0,95,0.04,,,0.40,0.000000,,2013-11-24 01:22:00,
2013-11-23 18:32:00,34.0,33.0,-100.00,SE,144,6.0,7.0,95,0.04,,,0.40,0.000000,,2013-11-24 01:32:00,
2013-11-23 18:42:00,34.0,33.0,-100.00,SE,144,6.0,7.0,95,0.04,,,0.40,0.000000,,2013-11-24 01:42:00,
2013-11-23 19:22:00,33.0,32.0,-100.00,South,182,1.0,6.0,96,0.02,,,0.42,0.000000,,2013-11-24 02:22:00,
2013-11-23 19:32:00,33.0,32.0,-100.00,South,182,1.0,6.0,96,0.02,,,0.42,0.000000,,2013-11-24 02:32:00,
2013-11-23 19:42:00,33.0,32.0,-100.00,South,182,1.0,6.0,96,0.02,,,0.42,0.000000,,2013-11-24 02:42:00,
2013-11-23 20:22:00,33.0,32.0,-100.00,SE,136,2.0,4.0,95,0.02,,,0.44,0.000000,,2013-11-24 03:22:00,
2013-11-23 20:33:00,33.0,32.0,-100.00,SE,136,2.0,4.0,95,0.02,,,0.44,0.000000,,2013-11-24 03:33:00,
2013-11-23 20:43:00,33.0,32.0,-100.00,SE,136,2.0,4.0,95,0.02,,,0.44,0.000000,,2013-11-24 03:43:00,
2013-11-23 21:23:00,33.0,32.0,-100.00,SSE,168,3.0,7.0,95,0.01,,,0.44,0.000000,,2013-11-24 04:23:00,
2013-11-23 21:33:00,33.0,32.0,-100.00,SSE,168,3.0,7.0,95,0.01,,,0.44,0.000000,,2013-11-24 04:33:00,
2013-11-23 21:42:00,33.0,32.0,-100.00,SSE,168,3.0,7.0,95,0.01,,,0.44,0.000000,,2013-11-24 04:42:00,
2013-11-23 22:22:00,33.0,32.0,-100.00,SW,226,1.0,6.0,96,0.01,,,0.45,0.000000,,2013-11-24 05:22:00,
2013-11-23 22:33:00,33.0,32.0,-100.00,SW,226,1.0,6.0,96,0.01,,,0.45,0.000000,,2013-11-24 05:33:00,
2013-11-23 22:43:00,33.0,32.0,-100.00,SW,226,1.0,6.0,96,0.01,,,0.45,0.000000,,2013-11-24 05:43:00,
2013-11-23 23:21:00,32.0,31.0,-100.00,SSW,192,0.0,4.0,97,0.01,,,0.46,0.000000,,2013-11-24 06:21:00,
2013-11-23 23:32:00,32.0,31.0,-100.00,SSW,192,0.0,4.0,97,0.01,,,0.46,0.000000,,2013-11-24 06:32:00,
2013-11-23 23:42:00,32.0,31.0,-100.00,SSW,192,0.0,4.0,97,0.01,,,0.46,0.000000,,2013-11-24 06:42:00,